Weather History for KD50 - December, 2012

Change the Weather History Date:

Wednesday, December 5, 2012

  Actual Average (KISN) Record (KISN)
Temperature  
Mean Temperature 32 °F 17 °F  
Max Temperature 41 °F 27 °F 60 °F (1939)
Min Temperature 24 °F 7 °F -28 °F (1972)
Degree Days  
Heating Degree Days 32 48  
Month to date heating degree days 236  
Since 1 July heating degree days 2398  
Cooling Degree Days 0 0  
Month to date cooling degree days 0  
Year to date cooling degree days 456  
Moisture  
Dew Point 26 °F    
Average Humidity 78    
Maximum Humidity 87    
Minimum Humidity 61    
Precipitation  
Precipitation 0.00 in 0.02 in 0.51 in (2001)
Month to date precipitation 0.10  
Year to date precipitation 13.85  
Snow  
Snow 0.00 in 0.20 in 4.40 in (2001)
Month to date snowfall 1.2  
Since 1 July snowfall 10.1  
Snow Depth -    
Sea Level Pressure  
Sea Level Pressure 29.66 in    
Wind  
Wind Speed 19 mph (SSW)    
Max Wind Speed 28 mph    
Max Gust Speed 37 mph    
Visibility 10 miles    
Events      
T = Trace of Precipitation, MM = Missing Value Source: NWS Daily Summary

Daily Weather History Graph

Daily Weather History Graph

Search for Another Location

Airport or City:

Trip Planner

Search our weather history database for the weather conditions in past years. The results will help you decide how hot, cold, wet, or windy it might be!

Date:

Astronomy

Dec. 05, 2012 Rise Set
Actual Time 8:31 AM CST 4:56 PM CST
Civil Twilight 7:54 AM CST 5:33 PM CST
Nautical Twilight 7:14 AM CST 6:13 PM CST
Astronomical Twilight 6:36 AM CST 6:51 PM CST
Moon No Moon Rise 12:31 PM CST (12/5)
Length of Visible Light 9h 39m
Length of Day
8h 25m
Waning Gibbous, 59% of the Moon is Illuminated
Dec 5
Waning Gibbous
Dec 6
Last Quarter
Dec 13
New
Dec 19
First Quarter
Dec 28
Full

Hourly Weather History & Observations

Time (CST) Temp. Windchill Dew Point Humidity Pressure Visibility Wind Dir Wind Speed Gust Speed Precip Events Conditions
12:15 AM 24.8 °F 10.7 °F 19.4 °F 80% 29.93 in 10.0 mi South 19.6 mph 27.6 mph N/A   Clear
12:35 AM 24.8 °F 10.7 °F 19.4 °F 80% 29.91 in 10.0 mi South 19.6 mph 27.6 mph N/A   Clear
12:55 AM 24.8 °F 10.0 °F 19.4 °F 80% 29.90 in 10.0 mi South 21.9 mph 29.9 mph N/A   Clear
1:15 AM 26.6 °F 12.0 °F 19.4 °F 74% 29.89 in 10.0 mi South 23.0 mph 27.6 mph N/A   Clear
1:55 AM 26.6 °F 12.7 °F 19.4 °F 74% 29.86 in 10.0 mi South 20.7 mph 28.8 mph N/A   Clear
2:15 AM 26.6 °F 12.7 °F 19.4 °F 74% 29.85 in 10.0 mi South 20.7 mph 29.9 mph N/A   Clear
2:35 AM 26.6 °F 13.4 °F 19.4 °F 74% 29.84 in 10.0 mi South 18.4 mph 26.5 mph N/A   Clear
2:55 AM 26.6 °F 13.4 °F 19.4 °F 74% 29.84 in 10.0 mi South 18.4 mph - N/A   Clear
3:15 AM 26.6 °F 12.4 °F 21.2 °F 80% 29.82 in 10.0 mi South 21.9 mph 26.5 mph N/A   Clear
3:35 AM 26.6 °F 12.7 °F 21.2 °F 80% 29.81 in 10.0 mi South 20.7 mph 28.8 mph N/A   Clear
3:55 AM 26.6 °F 11.7 °F 21.2 °F 80% 29.79 in 10.0 mi South 24.2 mph 31.1 mph N/A   Clear
4:15 AM 26.6 °F 13.1 °F 21.2 °F 80% 29.79 in 10.0 mi South 19.6 mph 27.6 mph N/A   Clear
4:35 AM 26.6 °F 13.8 °F 21.2 °F 80% 29.78 in 10.0 mi South 17.3 mph - N/A   Clear
4:55 AM 26.6 °F 13.4 °F 21.2 °F 80% 29.77 in 10.0 mi South 18.4 mph - N/A   Scattered Clouds
5:15 AM 26.6 °F 12.4 °F 21.2 °F 80% 29.76 in 10.0 mi South 21.9 mph 26.5 mph N/A   Mostly Cloudy
5:35 AM 26.6 °F 12.7 °F 21.2 °F 80% 29.75 in 10.0 mi South 20.7 mph 25.3 mph N/A   Mostly Cloudy
5:55 AM 26.6 °F 13.4 °F 21.2 °F 80% 29.75 in 10.0 mi South 18.4 mph 23.0 mph N/A   Scattered Clouds
6:15 AM 26.6 °F 13.1 °F 21.2 °F 80% 29.73 in 10.0 mi South 19.6 mph 26.5 mph N/A   Scattered Clouds
6:35 AM 26.6 °F 12.4 °F 21.2 °F 80% 29.72 in 10.0 mi South 21.9 mph - N/A   Partly Cloudy
6:55 AM 26.6 °F 12.4 °F 21.2 °F 80% 29.70 in 10.0 mi South 21.9 mph 31.1 mph N/A   Clear
8:35 AM 26.6 °F 13.1 °F 21.2 °F 80% 29.67 in 10.0 mi South 19.6 mph 23.0 mph N/A   Clear
8:55 AM 26.6 °F 13.1 °F 21.2 °F 80% 29.66 in 10.0 mi SSW 19.6 mph 26.5 mph N/A   Clear
9:15 AM 26.6 °F 13.1 °F 23.0 °F 86% 29.65 in 10.0 mi South 19.6 mph - N/A   Clear
9:35 AM 26.6 °F 13.8 °F 23.0 °F 86% 29.65 in 10.0 mi South 17.3 mph 21.9 mph N/A   Clear
9:55 AM 28.4 °F 15.8 °F 23.0 °F 80% 29.64 in 10.0 mi SSW 18.4 mph 24.2 mph N/A   Clear
10:15 AM 28.4 °F 15.8 °F 23.0 °F 80% 29.64 in 10.0 mi SSW 18.4 mph - N/A   Clear
10:35 AM 30.2 °F 18.1 °F 23.0 °F 75% 29.62 in 10.0 mi SSW 18.4 mph 24.2 mph N/A   Clear
10:55 AM 32.0 °F 20.1 °F 24.8 °F 75% 29.61 in 10.0 mi SSW 19.6 mph - N/A   Clear
11:15 AM 32.0 °F 19.8 °F 24.8 °F 75% 29.60 in 10.0 mi South 20.7 mph 27.6 mph N/A   Clear
11:35 AM 32.0 °F 20.1 °F 24.8 °F 75% 29.59 in 10.0 mi South 19.6 mph 29.9 mph N/A   Clear
11:55 AM 33.8 °F 22.2 °F 26.6 °F 75% 29.57 in 10.0 mi South 20.7 mph 24.2 mph N/A   Clear
12:15 PM 35.6 °F 25.5 °F 26.6 °F 70% 29.57 in 10.0 mi SSW 17.3 mph 21.9 mph N/A   Clear
12:35 PM 35.6 °F 26.2 °F 28.4 °F 75% 29.56 in 10.0 mi South 15.0 mph 21.9 mph N/A   Partly Cloudy
1:15 PM 37.4 °F 28.5 °F 28.4 °F 70% 29.54 in 10.0 mi South 15.0 mph - N/A   Clear
1:35 PM 37.4 °F 27.2 °F 28.4 °F 70% 29.52 in 10.0 mi South 19.6 mph 23.0 mph N/A   Clear
1:55 PM 37.4 °F 28.5 °F 28.4 °F 70% 29.52 in 10.0 mi South 15.0 mph - N/A   Mostly Cloudy
2:15 PM 37.4 °F 28.5 °F 28.4 °F 70% 29.52 in 10.0 mi SSW 15.0 mph - N/A   Scattered Clouds
2:35 PM 37.4 °F 28.9 °F 30.2 °F 75% 29.51 in 10.0 mi SSW 13.8 mph - N/A   Partly Cloudy
2:55 PM 39.2 °F 29.8 °F 30.2 °F 70% 29.51 in 10.0 mi SSW 18.4 mph 23.0 mph N/A   Partly Cloudy
3:15 PM 37.4 °F 28.2 °F 30.2 °F 75% 29.51 in 10.0 mi SSW 16.1 mph - N/A   Partly Cloudy
3:35 PM 37.4 °F 27.5 °F 30.2 °F 75% 29.50 in 10.0 mi SSW 18.4 mph 25.3 mph N/A   Partly Cloudy
3:55 PM 37.4 °F 27.8 °F 32.0 °F 81% 29.51 in 10.0 mi SSW 17.3 mph - N/A   Clear
4:15 PM 37.4 °F 28.9 °F 32.0 °F 81% 29.52 in 10.0 mi SW 13.8 mph 21.9 mph N/A   Clear
4:35 PM 37.4 °F 29.3 °F 32.0 °F 81% 29.52 in 10.0 mi SSW 12.7 mph - N/A   Clear
4:55 PM 35.6 °F 27.1 °F 32.0 °F 87% 29.54 in 10.0 mi SW 12.7 mph - N/A   Clear
5:15 PM 35.6 °F 28.0 °F 32.0 °F 87% 29.55 in 10.0 mi SSW 10.4 mph - N/A   Clear
5:35 PM 35.6 °F 27.5 °F 32.0 °F 87% 29.56 in 10.0 mi SSW 11.5 mph - N/A   Scattered Clouds
5:55 PM 35.6 °F 27.5 °F 32.0 °F 87% 29.57 in 10.0 mi SW 11.5 mph - N/A   Overcast
6:15 PM 39.2 °F 31.6 °F 32.0 °F 75% 29.58 in 10.0 mi SW 12.7 mph - N/A   Overcast
6:35 PM 39.2 °F 32.5 °F 32.0 °F 75% 29.58 in 10.0 mi SW 10.4 mph 16.1 mph N/A   Overcast
6:55 PM 41.0 °F 30.9 °F 28.4 °F 61% 29.60 in 10.0 mi West 24.2 mph 31.1 mph N/A   Scattered Clouds
7:15 PM 39.2 °F 28.0 °F 30.2 °F 70% 29.60 in 10.0 mi WNW 26.5 mph 34.5 mph N/A   Clear
7:35 PM 37.4 °F 25.4 °F 32.0 °F 81% 29.62 in 10.0 mi WNW 27.6 mph 35.7 mph N/A   Clear
7:55 PM 35.6 °F 24.2 °F 30.2 °F 81% 29.63 in 10.0 mi WNW 21.9 mph 36.8 mph N/A   Clear
8:15 PM 35.6 °F 24.0 °F 30.2 °F 81% 29.65 in 10.0 mi WNW 23.0 mph 28.8 mph N/A   Scattered Clouds
8:35 PM 32.0 °F 20.5 °F 28.4 °F 87% 29.66 in 10.0 mi WNW 18.4 mph 32.2 mph N/A   Partly Cloudy
8:55 PM 32.0 °F 22.5 °F 28.4 °F 87% 29.67 in 10.0 mi NW 12.7 mph 23.0 mph N/A   Clear
9:15 PM 32.0 °F 23.0 °F 28.4 °F 87% 29.69 in 10.0 mi WNW 11.5 mph - N/A   Scattered Clouds